Presure
88 103 151 133 158 88 128 90 153 136 89 94 110 93 138 144 150 163 127 146 151 147 141 131 129 134 147 161 139 143 130 132 160 133 141 137 157 139 157 133 135 194 126 186 199
139 164 116 151 124 125 161 88 92 97 144 158 122 159 143 134 125 120 142 142 156 145 138 133 146 134 140 139 151 146 151 143 143 133 127 125 115 123 129 133 123 179 208 191 132
119 84 105 161 113 120 106 90 99 150 92 162 138 137 147 157 150 146 136 147 141 138 142 137 159 129 146 144 154 133 137 129 131 131 138 140 150 178 146 190 186 199 203 163 193
177 176 91 102 104 136 115 142 132 133 101 89 136 135 162 161 132 147 137 141 149 141 145 149 148 143 123 120 123 134 185 132 121 122 130 130 116 140 171 185 117 205 203 203 149
170 115 141 162 130 110 101 166 124 91 95 167 157 91 138 143 142 142 138 145 141 143 160 142 150 147 130 137 134 123 159 134 133 126 155 126 120 135 217 156 192 205 201 188 149
151 140 171 126 134 158 144 101 144 138 168 142 146 136 152 142 173 138 147 137 180 175 158 136 172 152 147 132 141 144 125 126 121 132 125 160 126 181 143 169 195 206 178 174 195
137 127 165 163 112 138 150 142 126 135 129 131 154 140 165 139 148 154 144 150 143 141 161 148 147 158 140 159 157 104 118 123 126 127 124 120 125 111 175 135 180 186 193 182 127
181 122 176 170 159 135 123 133 154 130 120 134 167 129 146 142 122 152 141 161 151 145 144 149 143 154 144 143 116 120 124 117 130 121 132 115 127 170 167 152 178 147 167 153 136
113 122 152 124 175 172 155 172 138 149 143 126 180 153 140 143 148 131 148 147 164 146 148 148 152 160 143 123 122 133 111 108 118 117 122 114 116 184 165 150 160 150 183 168 164
181 182 159 167 189 176 155 177 129 139 155 143 157 142 169 147 142 159 178 150 164 147 148 146 153 161 131 143 120 118 114 147 113 172 147 104 116 108 159 159 172 148 173 163 157
155 192 121 153 135 173 184 149 169 119 153 129 137 144 148 131 132 171 146 134 165 153 141 146 141 148 148 125 130 120 119 121 115 120 156 97 107 98 113 130 163 151 150 150 152
217 169 149 161 181 138 172 135 118 181 168 132 146 150 134 137 136 142 134 149 133 141 151 135 154 136 148 146 131 123 120 123 140 116 144 101 141 98 97 183 156 154 153 159 197
296 248 155 162 151 170 168 192 135 163 161 183 170 149 133 146 150 131 130 136 155 136 143 137 121 149 125 150 134 133 117 130 118 145 109 133 94 98 159 152 153 152 148 150 177
281 268 265 192 220 167 147 149 157 146 159 151 129 149 144 177 174 141 141 133 163 139 142 153 145 132 149 149 138 142 129 116 147 166 149 157 95 97 161 147 152 143 139 144 207
271 272 276 230 192 194 182 163 191 191 170 178 136 195 187 172 157 139 150 147 143 143 129 152 145 141 163 137 158 144 126 152 126 169 156 156 96 170 153 144 151 145 144 184 202
266 143 280 106 222 114 211 182 161 175 178 177 186 171 129 145 137 153 144 160 147 149 156 138 131 141 163 145 137 144 147 155 161 162 155 153 147 98 139 149 144 147 156 203 203
260 254 261 271 195 218 148 169 132 193 174 146 182 139 145 148 133 163 148 156 152 135 152 147 143 149 149 142 120 137 164 143 149 161 154 154 157 149 145 126 141 143 155 216 163
261 255 265 278 236 205 203 193 156 196 158 134 140 179 177 177 146 139 154 145 151 146 138 155 153 144 137 162 150 149 142 169 160 159 154 155 146 149 142 144 137 143 147 155 211
259 256 257 265 259 242 153 191 201 198 159 133 153 156 182 188 144 166 140 153 148 143 149 152 147 135 145 148 140 169 151 183 153 152 159 157 146 128 147 141 141 138 144 204 143
246 253 256 261 265 240 211 196 111 187 185 154 168 177 167 119 142 147 145 161 151 158 142 150 152 157 145 163 147 170 180 162 152 149 151 152 135 146 140 141 140 133 139 179 158
238 248 254 248 252 247 199 196 218 187 186 139 173 163 180 186 179 152 197 171 203 161 166 152 141 155 139 186 170 148 180 157 158 141 168 149 160 150 120 142 129 133 140 166 185
255 243 252 260 253 250 235 211 208 161 188 162 179 177 174 177 176 125 121 133 162 187 141 173 138 133 168 194 175 164 143 162 174 146 158 152 150 156 151 138 141 171 140 129 179
247 247 244 251 253 248 237 201 206 206 130 189 172 187 154 164 196 160 167 110 133 171 130 129 147 150 167 164 165 168 164 165 185 153 136 152 140 128 158 150 135 140 164 132 147
249 242 238 247 244 247 240 228 210 201 193 187 189 186 175 178 173 170 143 177 182 122 132 129 143 140 151 161 142 144 151 144 171 170 186 142 140 133 145 196 138 138 134 138 146
238 244 239 232 246 236 241 234 220 209 157 189 170 180 150 176 177 180 184 170 186 186 180 178 147 184 186 175 155 148 175 172 161 167 151 140 133 155 136 124 159 124 133 136 136
204 243 231 229 232 240 232 234 233 210 209 194 189 189 179 177 187 169 166 179 177 185 183 195 182 124 184 190 160 142 145 146 149 199 135 136 133 127 158 140 129 125 149 137 143
200 234 233 233 229 236 235 231 225 224 206 199 196 192 190 133 132 143 181 165 182 180 184 182 186 181 176 149 161 170 133 180 193 146 145 133 142 115 134 166 135 138 131 132 165
Wind_Speed
26 33 54 47 52 21 38 20 47 38 17 18 21 13 33 27 31 30 23 19 15 15 19 20 20 18 13 18 18 16 16 12 20 12 11 13 19 12 25 26 29 24 26 25 22
55 64 42 56 43 42 56 21 23 22 42 44 30 40 35 33 22 16 25 23 21 18 24 24 20 20 18 17 17 15 14 13 12 16 18 21 17 26 27 28 28 26 26 27 30
47 31 39 60 40 41 33 25 28 47 23 49 34 38 32 34 33 30 31 24 27 27 26 25 26 22 18 19 23 18 15 18 15 19 19 20 25 40 21 36 34 30 26 27 28
73 71 34 37 37 50 39 50 43 45 31 25 37 38 42 38 34 32 34 32 25 28 27 25 24 23 21 18 19 20 28 18 20 19 23 28 18 22 41 37 32 33 31 26 31
72 50 60 62 52 41 37 58 44 30 30 59 47 26 42 41 41 37 36 34 32 31 33 29 28 24 25 24 22 23 27 22 22 21 33 27 26 26 45 36 37 33 31 32 31
60 62 71 55 58 63 60 38 54 50 63 46 47 44 46 46 49 36 39 39 46 42 32 30 32 28 27 23 23 23 24 21 18 21 25 40 27 44 33 42 40 33 35 37 35
56 60 67 65 45 61 63 58 46 48 47 42 55 48 52 45 44 42 42 38 39 38 32 33 32 32 32 32 26 18 22 23 23 23 24 29 28 25 40 37 44 40 36 39 34
80 56 82 74 70 61 51 55 61 48 44 47 60 45 53 50 33 44 42 40 41 42 35 34 35 33 34 30 26 27 26 22 28 22 27 28 30 38 39 41 45 43 43 40 36
53 59 68 63 81 80 68 70 59 60 59 48 68 56 52 52 52 37 48 44 44 42 40 37 36 36 33 26 30 29 22 22 26 24 26 28 30 50 40 38 40 42 49 46 49
86 87 71 84 89 83 68 80 56 63 70 58 63 57 58 57 52 52 58 47 48 44 41 39 39 38 35 35 30 30 27 30 23 34 37 24 31 29 38 40 46 43 51 47 49
73 95 61 67 71 86 88 67 76 47 72 49 58 62 60 51 50 57 50 41 51 50 43 40 38 39 38 35 38 35 33 32 25 31 37 30 29 33 37 41 43 43 43 46 50
99 81 71 75 91 65 85 66 47 82 70 55 68 58 56 57 52 55 46 52 43 47 47 39 43 42 40 39 38 37 37 38 44 28 34 29 41 36 38 49 43 43 45 50 48
48 82 72 79 66 84 87 103 72 73 70 74 75 67 57 65 60 49 46 49 58 47 50 43 37 44 39 42 41 38 38 38 34 38 28 35 36 40 41 42 45 45 44 47 54
57 76 90 106 108 89 67 65 60 67 70 81 54 73 71 71 66 60 58 49 61 51 52 54 48 42 48 45 45 46 48 38 42 51 44 43 37 42 42 47 46 45 43 48 49
54 63 62 99 107 110 95 75 103 97 74 78 52 84 78 70 73 59 64 63 56 57 46 54 50 48 54 48 52 48 45 46 53 48 51 47 38 46 47 50 50 50 50 54 50
56 50 57 52 86 51 112 100 77 83 85 82 82 76 53 71 58 72 64 70 61 61 60 51 46 52 54 51 48 52 53 52 47 50 53 50 52 44 53 48 52 53 57 56 51
53 63 67 78 86 113 76 83 67 104 78 78 88 68 77 78 56 74 66 70 66 52 60 57 56 56 55 52 48 52 56 51 53 51 52 54 49 51 52 48 53 55 58 51 58
61 60 63 64 104 114 110 108 80 107 82 71 68 80 76 76 73 59 74 62 67 63 53 64 64 57 53 60 59 58 58 50 53 53 54 55 55 55 53 51 54 56 59 62 51
62 64 67 68 99 107 80 105 107 111 73 70 74 86 78 85 67 80 61 72 64 60 63 65 62 54 59 61 57 55 62 60 56 56 58 57 57 46 55 56 56 55 59 62 55
58 65 67 68 72 106 112 107 63 106 99 74 77 87 82 47 70 69 70 75 70 75 58 68 68 69 59 63 66 61 60 57 59 58 59 60 57 59 56 56 59 54 56 63 60
65 59 66 78 76 84 104 110 112 111 105 76 87 82 90 90 78 82 86 73 82 81 65 64 54 71 55 68 65 64 61 62 60 58 61 62 65 62 53 59 53 59 61 61 66
67 63 60 70 76 75 105 114 115 95 109 79 96 91 84 87 82 58 49 53 67 80 57 69 52 49 66 78 63 63 61 62 62 61 64 62 67 65 61 60 62 59 61 51 66
64 62 61 70 72 74 94 117 116 115 75 109 95 102 83 79 94 78 76 48 53 71 49 48 66 73 67 68 64 65 64 63 70 63 61 61 63 49 68 62 60 64 67 58 68
65 64 63 62 70 77 90 114 116 116 116 107 107 102 90 92 89 82 70 82 85 53 56 56 69 65 67 69 62 65 66 65 67 70 77 58 63 53 65 77 60 66 63 66 73
62 61 60 59 59 73 83 105 116 118 89 113 88 97 81 90 89 89 92 78 88 87 83 86 75 87 85 79 70 69 77 74 68 71 63 63 62 71 59 49 68 56 67 65 66
62 64 63 66 63 71 81 85 100 117 117 115 111 110 97 93 103 81 79 89 83 91 88 96 89 56 84 87 74 69 71 66 64 93 61 62 65 51 73 67 52 53 65 69 75
63 64 68 69 71 67 73 81 94 103 117 116 115 112 110 72 67 74 97 82 93 90 93 90 93 86 82 69 75 86 67 86 90 68 67 62 69 51 65 74 69 71 65 65 75
Wind_Direction
222 229 229 229 233 226 227 223 234 239 240 249 244 245 219 211 248 265 252 232 254 247 227 238 247 242 268 311 244 249 273 268 324 275 287 298 330 292 324 316 293 329 313 310 295
228 230 229 227 231 233 231 232 228 233 238 240 247 241 237 232 260 253 225 226 259 241 230 232 270 235 292 241 284 262 293 282 276 278 295 302 332 313 293 291 319 325 314 308 304
238 223 231 230 235 234 232 238 232 235 239 239 237 228 227 233 242 225 233 231 229 230 238 252 281 245 258 255 305 264 263 274 282 285 288 289 309 327 314 342 333 326 319 310 300
235 236 228 230 232 233 232 231 232 236 238 243 230 233 243 245 243 229 234 232 237 236 244 253 257 238 265 276 274 271 320 272 293 297 291 305 316 312 335 338 309 321 321 310 316
238 240 232 229 235 235 239 231 238 233 240 240 233 250 233 231 230 227 236 233 233 237 271 241 260 250 253 257 256 276 310 276 279 280 319 298 304 311 332 326 333 324 319 321 314
232 224 233 240 239 234 234 244 231 233 236 230 234 241 238 232 249 236 231 241 268 264 260 243 277 262 257 253 250 282 280 284 291 285 292 319 300 341 326 327 332 323 325 323 310
223 223 233 230 235 237 227 235 239 237 240 242 235 237 238 238 231 231 234 237 241 246 256 247 250 269 251 285 282 279 292 294 293 292 291 306 299 309 335 319 330 330 323 323 327
229 230 237 228 231 238 243 242 229 240 244 242 235 246 235 238 255 239 239 246 241 243 245 248 246 265 250 254 272 276 278 294 291 295 300 302 302 327 327 322 329 321 330 328 325
236 227 232 231 231 232 230 234 238 240 235 246 239 236 239 236 237 254 237 239 251 244 245 248 254 269 261 259 268 269 278 287 294 294 298 304 307 338 323 318 321 320 326 327 327
230 229 231 234 234 232 232 236 241 239 231 236 230 234 236 234 240 239 248 241 247 246 246 250 256 270 256 265 267 276 279 292 290 301 300 299 301 311 315 318 325 318 325 327 327
245 227 229 236 227 235 234 231 234 241 233 239 242 236 234 246 248 244 242 253 247 244 253 252 254 256 260 265 266 278 281 282 287 293 294 295 302 301 315 310 319 316 323 326 326
227 237 239 241 233 227 235 234 243 236 228 238 235 238 245 245 248 243 251 244 254 253 251 258 254 255 262 265 269 274 284 285 287 291 291 286 299 300 310 322 313 316 321 323 316
221 225 226 242 236 239 235 235 235 238 229 236 240 240 247 238 242 249 251 249 243 255 254 257 261 260 262 267 270 272 284 285 289 289 277 289 303 299 303 308 311 315 320 323 317
221 220 219 227 225 238 232 226 229 233 233 230 241 235 239 241 240 246 247 254 248 253 256 253 260 262 264 266 268 274 278 282 283 287 287 290 295 297 298 305 309 314 317 323 308
223 218 216 217 229 228 235 239 238 239 235 236 238 241 240 239 235 248 245 246 248 251 257 252 259 264 262 265 271 274 280 280 286 283 284 287 293 291 297 305 309 314 318 314 309
217 233 211 235 215 236 225 236 225 235 237 234 239 236 242 242 245 240 247 241 249 250 248 258 259 263 263 267 272 276 279 279 276 277 282 284 290 292 302 304 309 314 312 313 307
217 216 212 216 218 222 231 239 233 236 237 233 239 242 242 241 247 246 247 243 247 253 253 255 260 261 267 270 272 275 272 279 279 275 279 281 284 291 297 303 308 312 310 306 314
208 216 213 214 212 223 225 231 227 233 224 240 244 237 237 239 245 248 244 251 249 252 257 251 255 265 267 262 272 273 277 279 273 275 277 280 286 287 295 300 308 309 311 312 302
212 207 213 208 209 214 228 229 229 231 229 239 240 231 239 244 242 238 251 247 248 255 254 253 259 264 268 269 273 270 273 284 273 274 277 279 282 303 293 299 305 310 312 313 319
213 210 208 210 210 212 221 225 240 234 236 227 235 239 239 234 242 247 250 247 250 247 256 255 258 257 268 268 269 272 279 268 271 273 278 279 292 286 292 297 301 307 311 307 312
214 211 212 209 208 213 222 224 223 232 235 235 238 237 241 244 241 243 251 253 254 245 253 253 262 257 269 274 263 269 279 268 271 276 279 278 281 282 292 292 303 304 308 308 306
214 209 215 212 209 205 210 220 223 229 234 231 237 240 240 243 243 240 243 248 254 256 256 260 260 262 257 270 267 263 269 269 278 272 272 276 280 281 284 295 294 300 306 306 303
214 209 210 212 209 205 210 224 223 225 235 234 237 238 236 239 245 244 248 248 248 255 252 254 256 257 260 264 265 267 266 270 284 270 280 275 283 303 288 287 302 299 303 307 307
215 209 210 212 210 211 211 216 222 226 231 236 236 238 241 244 246 247 248 250 251 253 255 255 255 257 260 262 263 262 268 266 273 272 288 278 279 298 284 299 298 299 306 308 306
215 210 210 207 210 215 215 219 221 225 230 235 238 240 238 244 246 249 251 248 257 259 260 260 255 265 268 268 263 265 275 271 268 275 276 279 286 283 288 297 289 300 303 309 308
221 208 212 212 211 212 214 219 223 227 228 234 237 239 242 245 246 247 248 254 256 259 259 261 263 263 267 271 263 266 264 265 266 284 275 280 285 296 285 291 299 298 299 304 304
221 213 213 214 213 215 215 219 224 227 229 232 236 239 241 239 242 245 251 250 257 258 260 261 263 262 262 258 272 273 271 277 280 269 270 283 279 290 293 286 294 295 297 302 298